ASA152 KORD-PANC

Flight info

Callsign ASA152
Flight time N/A
Altitude 38000
Route PMPKN NEATO DLLAN RONIC BAE DLH 50N095W LITGO RIDOK FADIM 61N130W ALUSO OMSUN TIEKL WITTI5
Aircraft A20N/M-SDE2E3FGHIRWXY/LB1

Departure

Time 2026-05-05 21:13
Airport Chicago O'Hare International Airport (KORD)

Arrival

Time N/A
Airport Ted Stevens Anchorage International Airport (PANC)
Time Latitude Longitude Altitude Speed Heading
2026-05-05 20:48 41.97464 -87.89872 670 ft 0 kts 23°
2026-05-05 21:01 41.97455 -87.89877 678 ft 3 kts 27°
2026-05-05 21:02 41.97437 -87.89895 668 ft 3 kts 51°
2026-05-05 21:02 41.97426 -87.89920 668 ft 3 kts 75°
2026-05-05 21:02 41.97423 -87.89949 666 ft 2 kts 99°
2026-05-05 21:02 41.97423 -87.89950 670 ft 0 kts 99°
2026-05-05 21:05 41.97422 -87.89942 670 ft 2 kts 105°
2026-05-05 21:05 41.97412 -87.89920 668 ft 4 kts 120°
2026-05-05 21:06 41.97396 -87.89881 670 ft 6 kts 120°
2026-05-05 21:06 41.97363 -87.89839 670 ft 8 kts 149°
2026-05-05 21:06 41.97318 -87.89802 670 ft 0 kts 148°
2026-05-05 21:08 41.97318 -87.89801 670 ft 0 kts 148°
2026-05-05 21:08 41.97309 -87.89794 670 ft 3 kts 148°
2026-05-05 21:09 41.97287 -87.89779 670 ft 5 kts 159°
2026-05-05 21:09 41.97252 -87.89792 670 ft 6 kts 216°
2026-05-05 21:09 41.97225 -87.89842 670 ft 7 kts 238°
2026-05-05 21:09 41.97208 -87.89910 670 ft 8 kts 268°
2026-05-05 21:10 41.97207 -87.89993 670 ft 9 kts 272°
2026-05-05 21:10 41.97209 -87.90083 670 ft 10 kts 259°
2026-05-05 21:10 41.97154 -87.90133 670 ft 11 kts 183°
2026-05-05 21:10 41.97075 -87.90128 670 ft 12 kts 161°
2026-05-05 21:11 41.97046 -87.90025 670 ft 13 kts 90°
2026-05-05 21:11 41.97046 -87.89890 670 ft 15 kts 90°
2026-05-05 21:11 41.97047 -87.89737 670 ft 17 kts 90°
2026-05-05 21:11 41.97025 -87.89579 670 ft 17 kts 138°
2026-05-05 21:12 41.96916 -87.89586 670 ft 17 kts 227°
2026-05-05 21:12 41.96901 -87.89720 670 ft 18 kts 266°
2026-05-05 21:12 41.96893 -87.90250 668 ft 93 kts 271°
2026-05-05 21:12 41.96908 -87.91407 706 ft 148 kts 270°
2026-05-05 21:13 41.96892 -87.92795 1400 ft 146 kts 269°
2026-05-05 21:13 41.96875 -87.94167 2178 ft 147 kts 270°
2026-05-05 21:13 41.96931 -87.95549 2774 ft 159 kts 290°
2026-05-05 21:13 41.97658 -87.96723 3186 ft 178 kts 331°
2026-05-05 21:14 41.98953 -87.97044 3699 ft 202 kts 355°
2026-05-05 21:14 42.00428 -87.97072 4201 ft 221 kts 358°
2026-05-05 21:14 42.02054 -87.96952 4693 ft 244 kts
2026-05-05 21:14 42.03817 -87.96733 5280 ft 261 kts
2026-05-05 21:15 42.05652 -87.96482 6107 ft 266 kts
2026-05-05 21:15 42.07509 -87.96230 6891 ft 273 kts
2026-05-05 21:15 42.09398 -87.95986 7614 ft 280 kts
2026-05-05 21:15 42.11368 -87.95739 8323 ft 287 kts
2026-05-05 21:16 42.13372 -87.95492 9054 ft 293 kts 359°
2026-05-05 21:16 42.15431 -87.95245 9816 ft 299 kts 359°
2026-05-05 21:16 42.17547 -87.94993 10295 ft 314 kts 358°
2026-05-05 21:16 42.19797 -87.94734 10517 ft 336 kts 359°
2026-05-05 21:17 42.22191 -87.94451 10888 ft 351 kts 359°
2026-05-05 21:17 42.24638 -87.94145 11575 ft 355 kts 359°
2026-05-05 21:17 42.27109 -87.93832 12297 ft 358 kts 359°
2026-05-05 21:17 42.29613 -87.93518 12964 ft 363 kts 358°
2026-05-05 21:18 42.32133 -87.93478 13642 ft 360 kts 348°
2026-05-05 21:18 42.34591 -87.93784 14311 ft 361 kts 347°
2026-05-05 21:18 42.37102 -87.94089 14996 ft 362 kts 347°
2026-05-05 21:18 42.39617 -87.94387 15641 ft 365 kts 347°
2026-05-05 21:19 42.42157 -87.94687 16282 ft 368 kts 346°
2026-05-05 21:19 42.44719 -87.94992 16917 ft 370 kts 346°
2026-05-05 21:19 42.47296 -87.95300 17536 ft 373 kts 346°
2026-05-05 21:19 42.49899 -87.95618 18138 ft 377 kts 346°
2026-05-05 21:20 42.52489 -87.95935 18595 ft 380 kts 346°
2026-05-05 21:20 42.55146 -87.96266 19061 ft 385 kts 345°
2026-05-05 21:20 42.57832 -87.96600 19531 ft 389 kts 345°
2026-05-05 21:20 42.60541 -87.96936 20008 ft 393 kts 345°
2026-05-05 21:21 42.63282 -87.97269 20484 ft 398 kts 346°
2026-05-05 21:21 42.66067 -87.97505 20949 ft 404 kts 347°
2026-05-05 21:21 42.68887 -87.97687 21427 ft 407 kts 346°
2026-05-05 21:21 42.71651 -87.98195 21893 ft 397 kts 336°
2026-05-05 21:22 42.74252 -87.99324 22398 ft 387 kts 326°
2026-05-05 21:22 42.76589 -88.00946 22866 ft 380 kts 319°
2026-05-05 21:22 42.78891 -88.02749 23385 ft 382 kts 319°
2026-05-05 21:22 42.81208 -88.04552 23813 ft 384 kts 319°
2026-05-05 21:23 42.83536 -88.06360 24245 ft 385 kts 319°
2026-05-05 21:23 42.85865 -88.08174 24650 ft 387 kts 319°
2026-05-05 21:23 42.88208 -88.10003 25076 ft 388 kts 319°
2026-05-05 21:23 42.90528 -88.11817 25476 ft 390 kts 319°
2026-05-05 21:24 42.92887 -88.13661 25863 ft 392 kts 319°
2026-05-05 21:24 42.95260 -88.15518 26235 ft 394 kts 319°
2026-05-05 21:24 42.97644 -88.17386 26611 ft 396 kts 319°
2026-05-05 21:24 42.99229 -88.18628 26839 ft 397 kts 319°
2026-05-05 21:25 43.01635 -88.20517 27187 ft 399 kts 319°
2026-05-05 21:25 43.04842 -88.23032 27656 ft 402 kts 319°
2026-05-05 21:25 43.07276 -88.24946 27994 ft 403 kts 319°
2026-05-05 21:25 43.09715 -88.26865 28322 ft 405 kts 319°
2026-05-05 21:26 43.11331 -88.28156 28540 ft 404 kts 317°
2026-05-05 21:26 43.13632 -88.30317 28857 ft 399 kts 313°
2026-05-05 21:26 43.15890 -88.32557 29161 ft 401 kts 313°
2026-05-05 21:26 43.18160 -88.34794 29457 ft 403 kts 313°
2026-05-05 21:27 43.20448 -88.37042 29755 ft 405 kts 313°
2026-05-05 21:27 43.22744 -88.39298 30033 ft 406 kts 313°
2026-05-05 21:27 43.25014 -88.41529 30345 ft 406 kts 313°
2026-05-05 21:27 43.27310 -88.43787 30680 ft 405 kts 313°
2026-05-05 21:28 43.29602 -88.46047 30977 ft 405 kts 313°
2026-05-05 21:28 43.31889 -88.48304 31342 ft 403 kts 313°
2026-05-05 21:28 43.34168 -88.50552 31769 ft 400 kts 313°
2026-05-05 21:28 43.36424 -88.52781 32189 ft 397 kts 313°
2026-05-05 21:29 43.38631 -88.54965 32587 ft 394 kts 312°
2026-05-05 21:29 43.40852 -88.57168 32963 ft 392 kts 312°
2026-05-05 21:29 43.43055 -88.59356 33294 ft 390 kts 312°
2026-05-05 21:29 43.45249 -88.61538 33638 ft 388 kts 312°
2026-05-05 21:30 43.47431 -88.63709 33935 ft 386 kts 312°
2026-05-05 21:30 43.49607 -88.65877 34152 ft 386 kts 312°
2026-05-05 21:30 43.51780 -88.68046 34335 ft 386 kts 312°
2026-05-05 21:30 43.53953 -88.70217 34508 ft 386 kts 312°
2026-05-05 21:31 43.56130 -88.72392 34677 ft 386 kts 312°
2026-05-05 21:31 43.58305 -88.74566 34837 ft 386 kts 312°
2026-05-05 21:31 43.60480 -88.76741 35010 ft 386 kts 312°
2026-05-05 21:31 43.62659 -88.78921 35158 ft 387 kts 312°
2026-05-05 21:32 43.64835 -88.81101 35304 ft 387 kts 312°
2026-05-05 21:32 43.67018 -88.83291 35453 ft 387 kts 312°
2026-05-05 21:32 43.69173 -88.85454 35582 ft 388 kts 312°
2026-05-05 21:32 43.71362 -88.87655 35725 ft 388 kts 312°
2026-05-05 21:33 43.73549 -88.89854 35881 ft 388 kts 312°
2026-05-05 21:33 43.75712 -88.92032 36008 ft 389 kts 312°
2026-05-05 21:33 43.77903 -88.94239 36131 ft 389 kts 312°
2026-05-05 21:33 43.80096 -88.96451 36244 ft 389 kts 312°
2026-05-05 21:34 43.82292 -88.98667 36350 ft 390 kts 312°
2026-05-05 21:34 43.84486 -89.00885 36469 ft 391 kts 313°
2026-05-05 21:34 43.86681 -89.03104 36574 ft 391 kts 313°
2026-05-05 21:34 43.88885 -89.05334 36676 ft 392 kts 313°
2026-05-05 21:35 43.93296 -89.09805 36853 ft 393 kts 313°
2026-05-05 21:35 43.95507 -89.12050 36956 ft 393 kts 313°
2026-05-05 21:35 43.97719 -89.14297 37040 ft 394 kts 313°
2026-05-05 21:36 44.02122 -89.18777 37182 ft 395 kts 313°
2026-05-05 21:36 44.06566 -89.23305 37332 ft 396 kts 313°
2026-05-05 21:37 44.11016 -89.27849 37487 ft 397 kts 313°
2026-05-05 21:37 44.15480 -89.32418 37611 ft 399 kts 313°
2026-05-05 21:38 44.19956 -89.37006 37744 ft 400 kts 313°
2026-05-05 21:38 44.24415 -89.41585 37864 ft 401 kts 313°
2026-05-05 21:39 44.28906 -89.46206 37892 ft 403 kts 313°
2026-05-05 21:39 44.33438 -89.50883 37900 ft 406 kts 314°
2026-05-05 21:40 44.38010 -89.55608 37899 ft 410 kts 314°
2026-05-05 21:40 44.42592 -89.60350 37899 ft 413 kts 314°
2026-05-05 21:41 44.47233 -89.65163 37904 ft 417 kts 314°
2026-05-05 21:41 44.51898 -89.70010 37903 ft 419 kts 314°
2026-05-05 21:42 44.56591 -89.74893 37899 ft 421 kts 314°
2026-05-05 21:42 44.61273 -89.79779 37896 ft 423 kts 314°
2026-05-05 21:43 44.66005 -89.84728 37902 ft 423 kts 314°
2026-05-05 21:43 44.68337 -89.87159 37895 ft 411 kts 314°
2026-05-05 21:43 44.70606 -89.89524 37906 ft 401 kts 314°
2026-05-05 21:44 44.75081 -89.94237 37909 ft 403 kts 314°
2026-05-05 21:44 44.79604 -89.98997 37902 ft 409 kts 316°
2026-05-05 21:45 45.43074 -90.76789 38043 ft 32000 kts 319°
2026-05-05 21:45 48.56137 -93.90524 36813 ft 32000 kts 319°
2026-05-05 21:45 49.68299 -94.84730 38500 ft 0 kts 319°
2026-05-05 21:45 49.75138 -94.76909 38676 ft 403 kts 318°
2026-05-05 21:46 49.77282 -94.79767 38435 ft 411 kts 319°
2026-05-05 21:46 49.79509 -94.82692 37787 ft 428 kts 320°
2026-05-05 21:46 49.82020 -94.85297 37457 ft 438 kts 333°
2026-05-05 21:46 49.84819 -94.87095 37613 ft 433 kts 339°
2026-05-05 21:47 49.87629 -94.88632 37210 ft 433 kts 338°
2026-05-05 21:47 49.90391 -94.90480 36922 ft 431 kts 332°
2026-05-05 21:47 49.95586 -94.95215 36998 ft 434 kts 326°
2026-05-05 21:48 50.00581 -95.00584 37056 ft 438 kts 323°
2026-05-05 21:48 50.05554 -95.06120 37123 ft 441 kts 324°
2026-05-05 21:49 50.10583 -95.11521 37283 ft 443 kts 324°
2026-05-05 21:49 50.13120 -95.14258 37404 ft 441 kts 324°
2026-05-05 21:49 50.15637 -95.16985 37558 ft 440 kts 324°
2026-05-05 21:50 50.18148 -95.19710 37720 ft 438 kts 324°
2026-05-05 21:50 50.20640 -95.22422 37867 ft 436 kts 324°
2026-05-05 21:50 50.23128 -95.25133 37986 ft 436 kts 324°
2026-05-05 21:50 50.25622 -95.27855 38003 ft 437 kts 324°
2026-05-05 21:51 50.30598 -95.33297 37992 ft 441 kts 324°
2026-05-05 21:51 50.35642 -95.38830 37993 ft 443 kts 324°
2026-05-05 21:52 50.43215 -95.47169 37986 ft 443 kts 325°
2026-05-05 21:53 50.48252 -95.52737 37987 ft 443 kts 325°
2026-05-05 21:53 50.53286 -95.58318 37991 ft 442 kts 325°
2026-05-05 21:54 50.58312 -95.63904 38002 ft 442 kts 324°
2026-05-05 21:54 50.63305 -95.69468 37991 ft 442 kts 325°
2026-05-05 21:55 50.68328 -95.75079 38006 ft 442 kts 325°
2026-05-05 21:55 50.73355 -95.80712 38007 ft 443 kts 325°
2026-05-05 21:56 50.78343 -95.86313 38005 ft 442 kts 325°
2026-05-05 21:56 50.83358 -95.91960 38005 ft 442 kts 325°
2026-05-05 21:57 50.88380 -95.97631 38001 ft 442 kts 325°
2026-05-05 21:57 50.93391 -96.03306 38016 ft 442 kts 325°
2026-05-05 21:58 50.98373 -96.08962 38009 ft 443 kts 325°
2026-05-05 21:58 51.03375 -96.14658 38011 ft 441 kts 325°
2026-05-05 21:59 51.08369 -96.20358 38014 ft 442 kts 325°
2026-05-05 21:59 51.13341 -96.26048 38010 ft 442 kts 325°
2026-05-05 22:00 51.18338 -96.31785 38018 ft 442 kts 325°
2026-05-05 22:00 51.23329 -96.37528 38021 ft 442 kts 325°
2026-05-05 22:01 51.28291 -96.43254 38030 ft 442 kts 325°
2026-05-05 22:01 51.33286 -96.49039 38021 ft 442 kts 325°
2026-05-05 22:02 51.38261 -96.54808 38026 ft 442 kts 325°
2026-05-05 22:02 51.43250 -96.60613 38030 ft 443 kts 325°
2026-05-05 22:03 51.48202 -96.66390 38026 ft 442 kts 325°
2026-05-05 22:03 51.53186 -96.72224 38034 ft 443 kts 325°
2026-05-05 22:04 51.58168 -96.78065 38038 ft 443 kts 325°
2026-05-05 22:04 51.63142 -96.83919 38035 ft 442 kts 325°
2026-05-05 22:05 51.68117 -96.89786 38033 ft 442 kts 325°
2026-05-05 22:05 51.73059 -96.95634 38032 ft 443 kts 325°
2026-05-05 22:06 51.78024 -97.01521 38037 ft 441 kts 325°
2026-05-05 22:06 51.82983 -97.07417 38042 ft 443 kts 325°
2026-05-05 22:07 51.87905 -97.13292 38042 ft 442 kts 325°
2026-05-05 22:07 51.92880 -97.19245 38043 ft 442 kts 325°
2026-05-05 22:08 51.97794 -97.25141 38047 ft 442 kts 325°
2026-05-05 22:08 52.02739 -97.31091 38048 ft 443 kts 325°
2026-05-05 22:09 52.07692 -97.37066 38042 ft 443 kts 325°
2026-05-05 22:09 52.12638 -97.43050 38048 ft 443 kts 325°
2026-05-05 22:10 52.17594 -97.49061 38051 ft 443 kts 325°
2026-05-05 22:10 52.22511 -97.55044 38051 ft 443 kts 325°
2026-05-05 22:11 52.27450 -97.61073 38050 ft 443 kts 325°
2026-05-05 22:11 52.32389 -97.67117 38058 ft 443 kts 325°
2026-05-05 22:12 52.37323 -97.73171 38062 ft 443 kts 324°
2026-05-05 22:12 52.42225 -97.79205 38053 ft 443 kts 324°
2026-05-05 22:13 52.47165 -97.85302 38064 ft 444 kts 324°
2026-05-05 22:13 52.52108 -97.91422 38071 ft 444 kts 324°
2026-05-05 22:14 52.57008 -97.97504 38057 ft 444 kts 324°
2026-05-05 22:14 52.61950 -98.03657 38058 ft 445 kts 324°
2026-05-05 22:15 52.66879 -98.09811 38071 ft 444 kts 324°
2026-05-05 22:15 52.71804 -98.15977 38057 ft 445 kts 324°
2026-05-05 22:16 52.76734 -98.22169 38062 ft 445 kts 324°
2026-05-05 22:16 52.81658 -98.28373 38066 ft 445 kts 324°
2026-05-05 22:17 52.86557 -98.34560 38065 ft 445 kts 324°
2026-05-05 22:17 52.91491 -98.40812 38083 ft 446 kts 324°
2026-05-05 22:18 52.96422 -98.47077 38080 ft 446 kts 324°
2026-05-05 22:18 53.01301 -98.53297 38061 ft 444 kts 324°
2026-05-05 22:19 53.06210 -98.59574 38064 ft 445 kts 324°
2026-05-05 22:19 53.11126 -98.65874 38064 ft 445 kts 324°
2026-05-05 22:20 53.15986 -98.72122 38064 ft 444 kts 324°
2026-05-05 22:20 53.20880 -98.78436 38061 ft 444 kts 324°
2026-05-05 22:21 53.24947 -98.83694 38059 ft 444 kts 324°
2026-05-05 22:21 53.29839 -98.90032 38062 ft 444 kts 324°
2026-05-05 22:22 53.34725 -98.96385 38074 ft 444 kts 324°
2026-05-05 22:22 53.39613 -99.02763 38062 ft 445 kts 324°
2026-05-05 22:23 53.44479 -99.09132 38065 ft 441 kts 324°
2026-05-05 22:23 53.49322 -99.15485 38070 ft 442 kts 324°
2026-05-05 22:24 53.54144 -99.21826 38068 ft 442 kts 324°
2026-05-05 22:24 53.58983 -99.28219 38067 ft 442 kts 324°
2026-05-05 22:25 53.63829 -99.34633 38070 ft 442 kts 324°
2026-05-05 22:25 53.68633 -99.41017 38069 ft 442 kts 324°
2026-05-05 22:26 53.73462 -99.47446 38077 ft 442 kts 323°
2026-05-05 22:26 53.78293 -99.53897 38080 ft 442 kts 323°
2026-05-05 22:27 53.83117 -99.60357 38081 ft 442 kts 323°
2026-05-05 22:27 53.87925 -99.66823 38077 ft 441 kts 323°
2026-05-05 22:28 53.92700 -99.73260 38086 ft 441 kts 323°
2026-05-05 22:28 53.97503 -99.79756 38082 ft 441 kts 323°
2026-05-05 22:29 54.02297 -99.86261 38079 ft 440 kts 323°
2026-05-05 22:29 54.07087 -99.92773 38086 ft 440 kts 323°
2026-05-05 22:30 54.11836 -99.99252 38080 ft 440 kts 323°
2026-05-05 22:30 54.16614 -100.05792 38094 ft 440 kts 323°
2026-05-05 22:31 54.21391 -100.12348 38093 ft 440 kts 323°
2026-05-05 22:31 54.26159 -100.18916 38097 ft 440 kts 323°
2026-05-05 22:32 54.30926 -100.25502 38103 ft 440 kts 323°
2026-05-05 22:32 54.35663 -100.32066 38105 ft 440 kts 323°
2026-05-05 22:33 54.40429 -100.38688 38096 ft 440 kts 323°
2026-05-05 22:33 54.45187 -100.45322 38106 ft 441 kts 323°
2026-05-05 22:34 54.49953 -100.51987 38113 ft 441 kts 323°
2026-05-05 22:34 54.54684 -100.58624 38118 ft 441 kts 323°
2026-05-05 22:35 54.59444 -100.65323 38119 ft 441 kts 323°
2026-05-05 22:35 54.64198 -100.72033 38120 ft 441 kts 323°
2026-05-05 22:36 54.68919 -100.78719 38123 ft 441 kts 323°
2026-05-05 22:36 54.73661 -100.85453 38131 ft 441 kts 323°
2026-05-05 22:37 54.78405 -100.92211 38136 ft 441 kts 322°
2026-05-05 22:37 54.83147 -100.98989 38130 ft 441 kts 322°
2026-05-05 22:38 54.87888 -101.05787 38138 ft 441 kts 322°
2026-05-05 22:38 54.92611 -101.12579 38141 ft 441 kts 322°
2026-05-05 22:39 54.97335 -101.19393 38149 ft 441 kts 322°
2026-05-05 22:39 55.02027 -101.26182 38148 ft 440 kts 322°
2026-05-05 22:40 55.06737 -101.33021 38153 ft 440 kts 322°
2026-05-05 22:40 55.11442 -101.39877 38158 ft 440 kts 322°
2026-05-05 22:41 55.16145 -101.46750 38165 ft 440 kts 322°
2026-05-05 22:41 55.20804 -101.53577 38158 ft 439 kts 322°
2026-05-05 22:42 55.25491 -101.60464 38164 ft 439 kts 322°
2026-05-05 22:42 55.30172 -101.67371 38163 ft 439 kts 322°
2026-05-05 22:43 55.34731 -101.74120 38169 ft 439 kts 322°
2026-05-05 22:43 55.38957 -101.80392 38168 ft 439 kts 322°
2026-05-05 22:44 55.39122 -101.80639 38174 ft 439 kts 322°
2026-05-05 22:44 55.39423 -101.81086 38173 ft 439 kts 322°
2026-05-05 22:45 55.39995 -101.81937 38182 ft 439 kts 322°
2026-05-05 22:50 55.41703 -101.84479 38169 ft 440 kts 322°
2026-05-05 22:50 55.44264 -101.88296 38170 ft 440 kts 322°
2026-05-05 22:51 55.47170 -101.92635 38177 ft 440 kts 322°
2026-05-05 22:51 55.51853 -101.99647 38187 ft 441 kts 322°
2026-05-05 22:52 55.56497 -102.06621 38176 ft 441 kts 322°
2026-05-05 22:52 55.61173 -102.13670 38180 ft 441 kts 321°
2026-05-05 22:53 55.65846 -102.20735 38192 ft 441 kts 322°
2026-05-05 22:53 55.70479 -102.27761 37978 ft 439 kts 322°
2026-05-05 22:53 55.72629 -102.31550 38205 ft 437 kts 311°
2026-05-05 22:54 55.74341 -102.36034 38191 ft 441 kts 304°
2026-05-05 22:54 57.01647 -105.80570 38088 ft 32000 kts 303°
2026-05-05 22:54 58.88701 -111.84772 36541 ft 32000 kts 303°
2026-05-05 22:54 59.71874 -118.79403 36541 ft 32000 kts 278°
2026-05-05 22:55 60.63912 -125.54085 36541 ft 0 kts 278°
2026-05-05 22:55 60.97155 -128.71708 36997 ft 0 kts 278°
2026-05-05 22:55 60.97510 -128.76835 37761 ft 412 kts 273°
2026-05-05 22:55 60.97893 -128.82558 37867 ft 399 kts 272°
2026-05-05 22:56 60.98177 -128.88088 37885 ft 386 kts 268°
2026-05-05 22:56 60.98396 -128.99220 37876 ft 391 kts 268°
2026-05-05 22:57 60.98607 -129.10451 37869 ft 393 kts 268°
2026-05-05 22:57 60.98820 -129.21725 37866 ft 392 kts 267°
2026-05-05 22:58 60.99019 -129.32926 37864 ft 395 kts 267°
2026-05-05 22:58 60.99207 -129.44227 37860 ft 395 kts 267°
2026-05-05 22:59 60.99394 -129.55549 37847 ft 394 kts 266°
2026-05-05 22:59 60.99556 -129.66881 37857 ft 395 kts 267°
2026-05-05 23:00 60.99797 -129.83862 37851 ft 396 kts 267°
2026-05-05 23:00 60.99947 -129.95222 37856 ft 397 kts 267°
2026-05-05 23:01 61.00473 -130.06697 37843 ft 404 kts 273°
2026-05-05 23:01 61.01281 -130.18158 37821 ft 404 kts 273°
2026-05-05 23:02 61.02074 -130.29541 37905 ft 402 kts 272°
2026-05-05 23:02 61.02871 -130.41020 37825 ft 404 kts 272°
2026-05-05 23:03 61.03665 -130.52515 37820 ft 403 kts 272°
2026-05-05 23:03 61.04446 -130.64013 37806 ft 406 kts 272°
2026-05-05 23:04 61.05209 -130.75472 37803 ft 405 kts 272°
2026-05-05 23:04 61.05969 -130.87065 37799 ft 409 kts 272°
2026-05-05 23:05 61.06725 -130.98716 37801 ft 409 kts 272°
2026-05-05 23:05 61.07466 -131.10302 37799 ft 410 kts 272°
2026-05-05 23:06 61.08203 -131.22015 37801 ft 411 kts 272°
2026-05-05 23:06 61.08931 -131.33747 37794 ft 410 kts 272°
2026-05-05 23:07 61.09642 -131.45383 37784 ft 409 kts 272°
2026-05-05 23:07 61.10348 -131.57077 37771 ft 410 kts 272°
2026-05-05 23:08 61.11043 -131.68774 37774 ft 410 kts 271°
2026-05-05 23:08 61.11732 -131.80556 37791 ft 415 kts 271°
2026-05-05 23:09 61.12412 -131.92359 37783 ft 416 kts 271°
2026-05-05 23:09 61.13087 -132.04246 37775 ft 415 kts 271°
2026-05-05 23:10 61.13753 -132.16164 37772 ft 416 kts 271°
2026-05-05 23:10 61.14403 -132.28037 37772 ft 418 kts 271°
2026-05-05 23:11 61.15051 -132.40015 37771 ft 417 kts 271°
2026-05-05 23:11 61.15685 -132.51988 37764 ft 418 kts 271°
2026-05-05 23:12 61.16309 -132.63986 37774 ft 419 kts 271°
2026-05-05 23:12 61.16923 -132.75938 37773 ft 418 kts 271°
2026-05-05 23:13 61.17526 -132.87931 37780 ft 419 kts 270°
2026-05-05 23:13 61.18020 -132.97913 37783 ft 419 kts 270°
2026-05-05 23:14 61.18701 -133.11884 37784 ft 419 kts 270°
2026-05-05 23:14 61.19182 -133.21947 37787 ft 419 kts 270°
2026-05-05 23:15 61.19742 -133.33877 37775 ft 417 kts 270°
2026-05-05 23:15 61.20294 -133.45835 37764 ft 417 kts 270°
2026-05-05 23:16 61.20836 -133.57840 37793 ft 419 kts 270°
2026-05-05 23:16 61.21368 -133.69927 37797 ft 421 kts 269°
2026-05-05 23:17 61.21887 -133.81962 37782 ft 422 kts 269°
2026-05-05 23:17 61.22401 -133.94067 37778 ft 422 kts 269°
2026-05-05 23:18 61.22905 -134.06237 37768 ft 423 kts 270°
2026-05-05 23:18 61.23402 -134.18416 37771 ft 422 kts 269°
2026-05-05 23:19 61.23885 -134.30579 37771 ft 423 kts 269°
2026-05-05 23:19 61.24358 -134.42785 37754 ft 425 kts 269°
2026-05-05 23:20 61.24819 -134.54948 37754 ft 424 kts 269°
2026-05-05 23:20 61.25271 -134.67177 37754 ft 424 kts 269°
2026-05-05 23:21 61.25712 -134.79409 37758 ft 424 kts 269°
2026-05-05 23:21 61.26144 -134.91645 37756 ft 424 kts 268°
2026-05-05 23:22 61.26561 -135.03883 37762 ft 424 kts 268°
2026-05-05 23:22 61.26966 -135.16051 37758 ft 424 kts 268°
2026-05-05 23:23 61.27363 -135.28303 37755 ft 424 kts 268°
2026-05-05 23:23 61.27750 -135.40563 37751 ft 424 kts 268°
2026-05-05 23:24 61.28125 -135.52836 37752 ft 425 kts 268°
2026-05-05 23:24 61.28487 -135.64993 37752 ft 424 kts 268°
2026-05-05 23:25 61.28841 -135.77242 37751 ft 425 kts 268°
2026-05-05 23:25 61.29183 -135.89530 37747 ft 425 kts 268°
2026-05-05 23:26 61.29514 -136.01831 37746 ft 426 kts 267°
2026-05-05 23:26 61.29835 -136.14176 37751 ft 427 kts 267°
2026-05-05 23:27 61.30145 -136.26448 37752 ft 428 kts 267°
2026-05-05 23:27 61.30445 -136.38827 37743 ft 428 kts 267°
2026-05-05 23:28 61.30732 -136.51200 37737 ft 428 kts 267°
2026-05-05 23:28 61.31010 -136.63563 37734 ft 427 kts 267°
2026-05-05 23:29 61.31275 -136.75865 37728 ft 427 kts 267°
2026-05-05 23:29 61.31529 -136.88242 37716 ft 427 kts 267°
2026-05-05 23:30 61.31771 -137.00602 37706 ft 428 kts 267°
2026-05-05 23:30 61.32005 -137.13008 37709 ft 429 kts 266°
2026-05-05 23:31 61.32227 -137.25404 37704 ft 427 kts 266°
2026-05-05 23:31 61.32436 -137.37697 37701 ft 428 kts 266°
2026-05-05 23:32 61.32633 -137.50115 37698 ft 428 kts 266°
2026-05-05 23:32 61.32820 -137.62514 37694 ft 427 kts 266°
2026-05-05 23:33 61.32997 -137.74917 37699 ft 429 kts 266°
2026-05-05 23:33 61.33160 -137.87277 37703 ft 428 kts 266°
2026-05-05 23:34 61.33315 -137.99696 37686 ft 428 kts 266°
2026-05-05 23:34 61.33455 -138.12015 37682 ft 428 kts 266°
2026-05-05 23:35 61.33588 -138.24433 37681 ft 428 kts 265°
2026-05-05 23:35 61.33708 -138.36857 37670 ft 428 kts 265°
2026-05-05 23:36 61.33817 -138.49255 37655 ft 427 kts 265°
2026-05-05 23:36 61.33911 -138.61544 37640 ft 426 kts 265°
2026-05-05 23:37 61.33997 -138.73907 37629 ft 426 kts 265°
2026-05-05 23:37 61.34073 -138.86245 37616 ft 425 kts 265°
2026-05-05 23:38 61.34136 -138.98487 37615 ft 425 kts 265°
2026-05-05 23:38 61.34186 -139.10804 37608 ft 424 kts 264°
2026-05-05 23:39 61.34226 -139.23120 37635 ft 427 kts 264°
2026-05-05 23:39 61.34257 -139.35509 37644 ft 426 kts 264°
2026-05-05 23:40 61.34275 -139.47776 37662 ft 427 kts 264°
2026-05-05 23:40 61.34283 -139.60195 37673 ft 429 kts 264°
2026-05-05 23:41 61.34279 -139.72635 37687 ft 427 kts 264°
2026-05-05 23:41 61.34264 -139.85062 37708 ft 430 kts 264°
2026-05-05 23:42 61.34246 -139.97433 37719 ft 428 kts 264°
2026-05-05 23:42 61.34220 -140.09843 37721 ft 427 kts 264°
2026-05-05 23:43 61.34177 -140.22289 37739 ft 431 kts 264°
2026-05-05 23:43 61.34058 -140.34718 37744 ft 431 kts 263°
2026-05-05 23:44 61.34002 -140.47232 37757 ft 432 kts 264°
2026-05-05 23:44 61.33953 -140.59772 37786 ft 435 kts 264°
2026-05-05 23:45 61.33872 -140.72383 37790 ft 435 kts 264°
2026-05-05 23:45 61.33774 -140.84902 37801 ft 434 kts 264°
2026-05-05 23:46 61.33506 -140.97461 37819 ft 431 kts 258°
2026-05-05 23:46 61.32397 -141.09681 37832 ft 427 kts 251°
2026-05-05 23:47 61.30823 -141.21626 37835 ft 428 kts 251°
2026-05-05 23:47 61.29266 -141.33589 37851 ft 431 kts 251°
2026-05-05 23:48 61.27694 -141.45589 37857 ft 430 kts 251°
2026-05-05 23:48 61.26101 -141.57599 37859 ft 432 kts 251°
2026-05-05 23:49 61.24488 -141.69659 37871 ft 432 kts 251°
2026-05-05 23:49 61.22882 -141.81591 37877 ft 431 kts 251°
2026-05-05 23:50 61.21254 -141.93567 37863 ft 430 kts 251°
2026-05-05 23:50 61.19624 -142.05491 37853 ft 427 kts 251°
2026-05-05 23:51 61.18004 -142.17256 37847 ft 426 kts 251°
2026-05-05 23:51 61.16364 -142.29052 37870 ft 426 kts 250°
2026-05-05 23:52 61.14717 -142.40815 37863 ft 430 kts 250°
2026-05-05 23:52 61.13043 -142.52701 37863 ft 429 kts 250°
2026-05-05 23:53 61.11359 -142.64568 37860 ft 429 kts 250°
2026-05-05 23:53 61.09666 -142.76414 37866 ft 430 kts 250°
2026-05-05 23:54 61.07969 -142.88195 37866 ft 430 kts 250°
2026-05-05 23:54 61.06251 -143.00053 37863 ft 431 kts 250°
2026-05-05 23:55 61.04526 -143.11881 37858 ft 430 kts 250°
2026-05-05 23:55 61.02789 -143.23698 37869 ft 430 kts 250°
2026-05-05 23:56 61.01041 -143.35503 37869 ft 431 kts 250°
2026-05-05 23:56 60.99291 -143.47242 37862 ft 431 kts 250°
2026-05-05 23:57 60.97519 -143.59025 37866 ft 430 kts 250°
2026-05-05 23:57 60.95739 -143.70803 37875 ft 431 kts 250°
2026-05-05 23:58 60.93948 -143.82572 37875 ft 431 kts 250°
2026-05-05 23:58 60.92156 -143.94263 37889 ft 431 kts 250°
2026-05-05 23:59 60.90341 -144.06019 37899 ft 431 kts 250°
2026-05-05 23:59 60.88518 -144.17759 37900 ft 430 kts 249°
2026-05-06 00:00 60.86688 -144.29463 37908 ft 431 kts 249°
2026-05-06 00:00 60.84845 -144.41166 37916 ft 431 kts 249°
2026-05-06 00:01 60.83003 -144.52784 37916 ft 432 kts 249°
2026-05-06 00:01 60.81133 -144.64508 37920 ft 432 kts 250°
2026-05-06 00:02 60.80491 -144.70540 37923 ft 436 kts 262°
2026-05-06 00:02 60.80508 -144.76783 37915 ft 442 kts 274°
2026-05-06 00:02 60.81755 -144.89206 37916 ft 445 kts 279°
2026-05-06 00:03 60.83092 -145.01542 37921 ft 447 kts 278°
2026-05-06 00:03 60.84386 -145.13994 37917 ft 447 kts 278°
2026-05-06 00:04 60.85655 -145.26474 37899 ft 445 kts 278°
2026-05-06 00:04 60.86902 -145.38938 37893 ft 446 kts 278°
2026-05-06 00:05 60.88754 -145.57634 37890 ft 447 kts 278°
2026-05-06 00:06 60.89978 -145.70142 37896 ft 447 kts 278°
2026-05-06 00:06 60.91182 -145.82605 37911 ft 446 kts 277°
2026-05-06 00:07 60.92384 -145.95145 37915 ft 446 kts 278°
2026-05-06 00:07 60.93371 -146.05539 37927 ft 446 kts 278°
2026-05-06 00:08 60.94551 -146.18100 37932 ft 447 kts 277°
2026-05-06 00:08 60.95719 -146.30675 37933 ft 446 kts 277°
2026-05-06 00:09 60.96876 -146.43242 37920 ft 446 kts 277°
2026-05-06 00:09 60.98010 -146.55716 37923 ft 447 kts 277°
2026-05-06 00:10 60.99146 -146.68349 37622 ft 448 kts 277°
2026-05-06 00:10 60.99709 -146.74657 37342 ft 446 kts 277°
2026-05-06 00:10 61.00269 -146.80967 36738 ft 449 kts 277°
2026-05-06 00:10 61.00830 -146.87327 35981 ft 452 kts 277°
2026-05-06 00:11 61.01382 -146.93623 35303 ft 452 kts 277°
2026-05-06 00:11 61.01939 -147.00005 34657 ft 452 kts 277°
2026-05-06 00:11 61.02493 -147.06382 33965 ft 453 kts 277°
2026-05-06 00:11 61.03047 -147.12806 33158 ft 453 kts 277°
2026-05-06 00:12 61.03593 -147.19176 32514 ft 448 kts 277°
2026-05-06 00:12 61.04132 -147.25502 31810 ft 447 kts 277°
2026-05-06 00:12 61.04667 -147.31827 31093 ft 446 kts 277°
2026-05-06 00:12 61.05196 -147.38099 30612 ft 440 kts 277°
2026-05-06 00:13 61.05716 -147.44299 30061 ft 436 kts 277°
2026-05-06 00:13 61.06228 -147.50449 29468 ft 432 kts 277°
2026-05-06 00:13 61.06731 -147.56523 28946 ft 425 kts 277°
2026-05-06 00:13 61.07218 -147.62434 28426 ft 419 kts 277°
2026-05-06 00:14 61.07700 -147.68324 27906 ft 414 kts 277°
2026-05-06 00:14 61.08172 -147.74137 27404 ft 408 kts 277°
2026-05-06 00:14 61.08638 -147.79897 26900 ft 403 kts 276°
2026-05-06 00:14 61.09095 -147.85584 26400 ft 398 kts 277°
2026-05-06 00:15 61.09545 -147.91222 25925 ft 394 kts 276°
2026-05-06 00:15 61.09992 -147.96854 25621 ft 404 kts 276°
2026-05-06 00:15 61.10449 -148.02683 25103 ft 415 kts 277°
2026-05-06 00:15 61.10914 -148.08593 24572 ft 417 kts 277°
2026-05-06 00:16 61.11372 -148.14430 24053 ft 415 kts 277°
2026-05-06 00:16 61.11831 -148.20299 23527 ft 411 kts 276°
2026-05-06 00:16 61.12281 -148.26104 22945 ft 406 kts 276°
2026-05-06 00:16 61.12721 -148.31815 22434 ft 399 kts 276°
2026-05-06 00:17 61.13152 -148.37448 21914 ft 393 kts 276°
2026-05-06 00:17 61.13575 -148.42997 21410 ft 387 kts 276°
2026-05-06 00:17 61.14025 -148.48457 20905 ft 383 kts 281°
2026-05-06 00:17 61.14818 -148.53698 20419 ft 380 kts 287°
2026-05-06 00:18 61.15727 -148.58800 19913 ft 376 kts 288°
2026-05-06 00:18 61.16633 -148.63860 19429 ft 372 kts 288°
2026-05-06 00:18 61.17522 -148.68871 18929 ft 369 kts 288°
2026-05-06 00:18 61.18385 -148.73798 18449 ft 366 kts 288°
2026-05-06 00:19 61.19249 -148.78743 17946 ft 363 kts 288°
2026-05-06 00:19 61.20104 -148.83656 17442 ft 359 kts 288°
2026-05-06 00:19 61.20942 -148.88491 16964 ft 354 kts 287°
2026-05-06 00:19 61.21778 -148.93298 16501 ft 351 kts 288°
2026-05-06 00:20 61.22598 -148.98044 16037 ft 348 kts 287°
2026-05-06 00:20 61.23408 -149.02750 15572 ft 345 kts 287°
2026-05-06 00:20 61.24154 -149.07388 15120 ft 340 kts 282°
2026-05-06 00:20 61.24615 -149.12168 14723 ft 335 kts 275°
2026-05-06 00:21 61.24899 -149.17176 14345 ft 357 kts 274°
2026-05-06 00:21 61.25209 -149.22301 13954 ft 357 kts 275°
2026-05-06 00:21 61.25522 -149.27385 13697 ft 347 kts 275°
2026-05-06 00:21 61.25821 -149.32275 13558 ft 334 kts 275°
2026-05-06 00:22 61.26104 -149.36977 13426 ft 321 kts 275°
2026-05-06 00:22 61.26368 -149.41427 13299 ft 309 kts 275°
2026-05-06 00:22 61.26626 -149.45814 12965 ft 303 kts 274°
2026-05-06 00:22 61.26874 -149.50149 12577 ft 300 kts 275°
2026-05-06 00:23 61.27118 -149.54447 12227 ft 298 kts 275°
2026-05-06 00:23 61.27360 -149.58716 11782 ft 297 kts 274°
2026-05-06 00:23 61.27599 -149.62962 11392 ft 294 kts 275°
2026-05-06 00:23 61.27837 -149.67180 11006 ft 292 kts 275°
2026-05-06 00:24 61.28263 -149.71261 10600 ft 293 kts 288°
2026-05-06 00:24 61.29130 -149.75071 10201 ft 292 kts 301°
2026-05-06 00:24 61.30203 -149.78647 9825 ft 290 kts 301°
2026-05-06 00:24 61.31257 -149.82219 9420 ft 289 kts 300°
2026-05-06 00:25 61.32301 -149.85787 9054 ft 287 kts 300°
2026-05-06 00:25 61.33335 -149.89330 8705 ft 286 kts 300°
2026-05-06 00:25 61.34380 -149.92872 8379 ft 286 kts 304°
2026-05-06 00:25 61.35785 -149.95691 7984 ft 286 kts 329°
2026-05-06 00:26 61.37636 -149.97140 7595 ft 284 kts 346°
2026-05-06 00:26 61.39548 -149.98188 7180 ft 284 kts 346°
2026-05-06 00:26 61.41447 -149.99243 6834 ft 281 kts 345°
2026-05-06 00:26 61.43335 -150.00300 6456 ft 280 kts 345°
2026-05-06 00:27 61.45214 -150.01356 6081 ft 279 kts 345°
2026-05-06 00:27 61.47084 -150.02405 5708 ft 277 kts 345°
2026-05-06 00:27 61.48941 -150.03448 5349 ft 275 kts 345°
2026-05-06 00:27 61.50783 -150.04487 4984 ft 273 kts 346°
2026-05-06 00:28 61.52609 -150.05539 4622 ft 271 kts 342°
2026-05-06 00:28 61.54192 -150.07529 4232 ft 270 kts 313°
2026-05-06 00:28 61.55114 -150.10800 4101 ft 255 kts 283°
2026-05-06 00:28 61.55157 -150.14366 3973 ft 238 kts 252°
2026-05-06 00:29 61.54371 -150.17234 3833 ft 221 kts 220°